Regional Weather Roundup
Issued by NWS

Home | Current Version | Previous Version | Text Only | Print | Product List | Glossary Off
Versions: 1 2 3 4 5 6 7 8 9 10 11 12 13 14 15 16 17 18 19 20 21 22 23 24 25 26 27 28 29 30 31 32 33 34 35 36 37 38 39 40 41 42 43 44 45 46 47 48 49 50

000
ASUS43 KDTX 020410
RWRMI
MICHIGAN HOURLY REGIONAL WEATHER ROUNDUP
NATIONAL WEATHER SERVICE DETROIT/PONTIAC MI
1200 AM EDT SUN AUG 02 2015

NOTE: "FAIR" INDICATES FEW OR NO CLOUDS BELOW 12,000 FEET WITH NO
SIGNIFICANT WEATHER AND/OR OBSTRUCTION TO VISIBILITY.

MIZ047>049-052>055-059>063-066>070-074>076-081>083-020500-
SOUTHEAST LOWER MICHIGAN

CITY           SKY/WX    TMP DP  RH WIND       PRES   REMARKS
ADRIAN         MOCLDY    68  58  70 CALM      29.92F
ALMA           CLEAR     59  55  87 CALM      29.89S
ANN ARBOR      PTCLDY    59  56  89 SW3       29.91S
BAD AXE        CLEAR     60  55  82 CALM      29.87R
DETROIT CITY   CLEAR     73  50  44 W7        29.89F
DETROIT        PTCLDY    70  54  56 SW8       29.90F
FLINT          CLEAR     65  52  62 SW6       29.89S
GROSSE ILE     CLEAR     70  55  60 SW6       29.89S
HILLSDALE      PTCLDY    67  61  81 CALM      29.93F
HOWELL         CLEAR     65  52  61 SW3       29.91F

CITY           SKY/WX    TMP DP  RH WIND       PRES   REMARKS
JACKSON        PTCLDY    65  58  78 SW5       29.92F
LAMBERTVILLE   CLOUDY    70  59  68 CALM      29.92S
LANSING        CLEAR     66  54  65 SW5       29.90F
LAPEER         NOT AVBL
MASON          CLEAR     62  54  74 CALM      29.91F
MONROE         MOCLDY    67  57  69 CALM      29.90F
MT. CLEMENS    CLEAR     70  50  48 W7        29.87S
PONTIAC        CLEAR     66  51  58 SW6       29.90S
PORT HOPE        N/A     66  58  75 W7        29.83S
PORT HURON     CLEAR     63  52  67 CALM      29.88S
TRI CITIES     CLEAR     66  52  60 SW7       29.88S
YPSILANTI      CLEAR     67  55  65 W7        29.91F
$$
MIZ043>046-050>051-056>058-064>065-071>073-077>080-020500-
SOUTHWEST LOWER MICHIGAN

CITY           SKY/WX    TMP DP  RH WIND       PRES   REMARKS
BATTLE CREEK   PTCLDY    68  59  73 CALM      29.91F
BENTON HARBOR  MOCLDY    67  62  84 CALM      29.89F
BIG RAPIDS     CLEAR     60  55  84 CALM      29.87F
COLDWATER      PTCLDY    65  60  82 CALM      29.92S
HOLLAND        CLEAR     64  57  78 CALM      29.88F
GRAND RAPIDS   CLEAR     66  55  67 CALM      29.89F
KALAMAZOO      MOCLDY    68  61  78 S3        29.91F
MARSHALL       PTCLDY    64  59  82 CALM      29.91F
MUSKEGON       CLEAR     68  59  73 S3        29.86F
$$
MIZ016>042-020500-
NORTHERN LOWER MICHIGAN

CITY           SKY/WX    TMP DP  RH WIND       PRES   REMARKS
ALPENA         CLEAR     58  55  90 S3        29.81F
BEAVER ISLAND  CLEAR     67  61  81 SW9       29.78F
BELLAIRE       CLEAR     63  55  76 CALM      29.81F
CADILLAC       CLEAR     63  54  74 SW6       29.86F
CHARLEVOIX     CLEAR     69  55  61 SW8       29.82S
FRANKFORT      CLEAR     69  59  71 CALM      29.82F
GAYLORD        CLEAR     62  53  72 SW3       29.83F
GRAYLING       CLEAR     57  51  80 CALM      29.85F
HARBOR SPRINGS CLEAR     67  57  69 SW5       29.79F
HOUGHTON LAKE  CLEAR     69  54  58 SW6       29.86S
MANISTEE       CLEAR     59  52  77 CALM      29.84F
OSCODA         CLEAR     60  54  79 CALM      29.83S
PELLSTON       CLEAR     60  54  80 CALM      29.79F
TRAVERSE CITY  CLEAR     69  53  56 SW5       29.80F
$$
MIZ007>008-015-020500-
EASTERN UPPER MICHIGAN

CITY           SKY/WX    TMP DP  RH WIND       PRES   REMARKS
KINROSS        CLEAR     64  57  77 S3        29.77F
MACKINAC ISLAN   N/A     67  61  80 SW7       29.78F
NEWBERRY       CLEAR     58  57  96 SW7       29.76F
S. S. MARIE    CLEAR     60  54  80 CALM      29.76F
$$
MIZ004>006-011>014-085-020500-
CENTRAL UPPER MICHIGAN

CITY           SKY/WX    TMP DP  RH WIND       PRES   REMARKS
MANISTIQUE     CLEAR     55  54  94 CALM      29.76F FOG
ESCANABA       CLEAR     61  54  77 W3        29.76F
MENOMINEE      CLEAR     68  52  56 SW5       29.78F
SAWYER-GWINN   CLEAR     63  49  62 SW6       29.77F
$$
MIZ001>003-009>011-084-020500-
WESTERN UPPER MICHIGAN

CITY           SKY/WX    TMP DP  RH WIND       PRES   REMARKS
IRON MOUNTAIN  CLEAR     62  53  72 SE3       29.78F
HOUGHTON       PTCLDY    70  49  47 SW9       29.70F
COPPER HARBOR    N/A     71  49  45 W9G17     29.67F
IRONWOOD       CLEAR     66  55  68 SW7       29.73F
$$

ABBREVIATIONS USED IN REMARKS
   TC - TEMPERATURE IN CELSIUS
  WCI - WIND CHILL INDEX
   HX - HEAT INDEX
  VSB - VISIBILITY



USA.gov is the U.S. government's official web portal to all federal, state and local government web resources and services.